DMSP 5D-2 F13 DEB, 40611

Orbit data source: Space-Track

DMSP 5D-2 F13 DEB, 40611 is space debris in SSO originally from a launch on Fri, 24 Mar 1995 UTC launched from the Air Force Western Test Range (AFWTR). Debris objects in space refer to the collection of defunct objects orbiting the Earth. Examples of debris include non-operational satellites, rocket bodies, and fragments generated from explosions, collisions, or faulty payload assembly.

Loading next visibility...
Identifier
40611, 1995-015FJ
Orbit
SSO
Country
Flag of USUS
Related business
Manufacturer
Unknown
Mission
Spacecraft
Bus & Motor
Unknown
Mass
Unknown
Launch date (UTC)
1995-03-24 (31 years ago)
Launch vehicle
Unknown
Launch site
Air Force Western Test Range (AFWTR)
Object type
Payload
Rocket body
Debris
Shape & HBR
Unknown shape, 0.1 m
Radar Cross Section
Small (<0.1 m²)

Expand to show TLE details & history
Last TLE update: 22 hours ago

TLE from 22 hours ago
0 DMSP 5D-2 F13 DEB
1 40611U 95015FJ  26133.04927762  .00002838  00000-0  95812-3 0  9993
2 40611  98.7674 170.1799 0026526 229.1239 130.7649 14.37547373573423
Epoch: 2026-05-13T01:10Z
TLE epoch observation values (Epoch: 2026-05-13T01:10:57.586Z)
Latitude
0.00003°
Longitude
-78.37493°
Altitude
781.956 km
Speed
7.456 km/s
True Right ascension
11h 20m 43s
True Declination
0° 00' 00"
Sunlit
Object was in full shadow at epoch
Visualization orbit readout
Latitude
Unknown
Longitude
Unknown
Altitude
Unknown
Speed
Unknown
Apparent Right ascension
Unknown
Apparent Declination
Unknown
Sunlit
N/A
Visualization observer readout
Local Sidereal Time
07:18:51
Azimuth
Unknown
Elevation
Unknown
Doppler factor
Unknown
Orbital elements
Apogee altitude
782.696 km
Perigee altitude
744.807 km
Semi-major axis
7,141.888 km
Eccentricity
0.00265
Inclination
98.7674°
RAAN
170.1799°
Arg. of periapsis
229.1239°
True anomaly
130.99462°
Mean anomaly
130.7649°
Eccentric anomaly
130.87981°
Mean motion
3.59603 °/min
Orbital period
100.11 mins
BSTAR
0.00095812
Loading maneuver chart data...
Computing Atmospheric mass density...

Documentation

Showing up to 5 results
|